Wetterdaten: Montag, 01.07.2013
Datum Zeit Temperatur Luftfeuchte Luftdruck Regen Wind Richtung Richtung Taupunkt Windchill Windben
01.07.2013 00:00 9,1 C 88 % 1023,9 hPa 0,0 l/m 1,0 km/h (0 Bft) O-NO 67 7,2 C 8,8 C 3,2 km/h (1 Bft)
01.07.2013 00:05 9,2 C 89 % 1023,9 hPa 0,0 l/m 1,6 km/h (1 Bft) NO 45 7,5 C 8,8 C 2,9 km/h (1 Bft)
01.07.2013 00:10 8,9 C 89 % 1023,9 hPa 0,0 l/m 1,8 km/h (1 Bft) O-SO 112 7,2 C 8,8 C 0,0 km/h (0 Bft)
01.07.2013 00:15 8,7 C 89 % 1023,9 hPa 0,0 l/m 0,8 km/h (0 Bft) O 90 7,0 C 8,6 C 1,6 km/h (1 Bft)
01.07.2013 00:20 8,8 C 89 % 1023,9 hPa 0,0 l/m 1,3 km/h (1 Bft) O-SO 112 7,1 C 8,4 C 1,9 km/h (1 Bft)
01.07.2013 00:25 8,7 C 89 % 1023,9 hPa 0,0 l/m 1,6 km/h (1 Bft) O 90 7,0 C 8,4 C 1,8 km/h (1 Bft)
01.07.2013 00:30 8,5 C 89 % 1023,9 hPa 0,0 l/m 0,6 km/h (0 Bft) NO 45 6,8 C 8,2 C 0,0 km/h (0 Bft)
01.07.2013 00:35 8,3 C 89 % 1023,9 hPa 0,0 l/m 0,2 km/h (0 Bft) O 90 6,6 C 8,1 C 0,0 km/h (0 Bft)
01.07.2013 00:40 8,1 C 89 % 1023,9 hPa 0,0 l/m 0,0 km/h (0 Bft) O-SO 112 6,4 C 7,8 C 0,0 km/h (0 Bft)
01.07.2013 00:45 7,9 C 89 % 1023,8 hPa 0,0 l/m 0,0 km/h (0 Bft) O-SO 112 6,2 C 7,7 C 0,0 km/h (0 Bft)
01.07.2013 00:50 7,9 C 89 % 1023,8 hPa 0,0 l/m 0,0 km/h (0 Bft) O-NO 67 6,2 C 7,5 C 0,0 km/h (0 Bft)
01.07.2013 00:55 7,6 C 89 % 1023,8 hPa 0,0 l/m 0,0 km/h (0 Bft) NO 45 5,9 C 7,4 C 0,0 km/h (0 Bft)
01.07.2013 01:00 7,9 C 89 % 1023,8 hPa 0,0 l/m 0,0 km/h (0 Bft) O-SO 112 6,2 C 7,2 C 0,0 km/h (0 Bft)
01.07.2013 01:05 7,7 C 89 % 1023,7 hPa 0,0 l/m 0,0 km/h (0 Bft) O 90 6,0 C 7,2 C 0,0 km/h (0 Bft)
01.07.2013 01:10 7,5 C 89 % 1023,7 hPa 0,0 l/m 0,0 km/h (0 Bft) O 90 5,8 C 7,2 C 0,0 km/h (0 Bft)
01.07.2013 01:15 7,6 C 90 % 1023,7 hPa 0,0 l/m 0,0 km/h (0 Bft) N-NO 22 6,1 C 7,2 C 0,0 km/h (0 Bft)
01.07.2013 01:20 7,7 C 90 % 1023,7 hPa 0,0 l/m 0,0 km/h (0 Bft) N 360 6,2 C 7,2 C 0,0 km/h (0 Bft)
01.07.2013 01:25 7,6 C 90 % 1023,6 hPa 0,0 l/m 0,0 km/h (0 Bft) N 360 6,1 C 7,2 C 0,0 km/h (0 Bft)
01.07.2013 01:30 7,6 C 90 % 1023,6 hPa 0,0 l/m 0,0 km/h (0 Bft) N-NO 22 6,1 C 7,0 C 0,0 km/h (0 Bft)
01.07.2013 01:35 7,6 C 90 % 1023,6 hPa 0,0 l/m 0,0 km/h (0 Bft) NO 45 6,1 C 7,0 C 0,0 km/h (0 Bft)
01.07.2013 01:40 7,5 C 90 % 1023,6 hPa 0,0 l/m 0,0 km/h (0 Bft) N 360 6,0 C 7,1 C 0,0 km/h (0 Bft)
01.07.2013 01:45 7,3 C 90 % 1023,4 hPa 0,0 l/m 0,0 km/h (0 Bft) N-NO 22 5,8 C 7,1 C 0,0 km/h (0 Bft)
01.07.2013 01:50 7,1 C 90 % 1023,4 hPa 0,0 l/m 0,0 km/h (0 Bft) N 360 5,6 C 6,9 C 0,0 km/h (0 Bft)
01.07.2013 01:55 7,1 C 90 % 1023,4 hPa 0,0 l/m 0,0 km/h (0 Bft) NO 45 5,6 C 6,9 C 0,0 km/h (0 Bft)
01.07.2013 02:00 6,9 C 90 % 1023,4 hPa 0,0 l/m 0,0 km/h (0 Bft) O-SO 112 5,4 C 6,7 C 0,0 km/h (0 Bft)
01.07.2013 02:05 6,8 C 90 % 1023,2 hPa 0,0 l/m 0,0 km/h (0 Bft) SO 135 5,3 C 6,7 C 0,0 km/h (0 Bft)
01.07.2013 02:10 6,8 C 90 % 1023,2 hPa 0,0 l/m 0,0 km/h (0 Bft) SO 135 5,3 C 6,6 C 0,0 km/h (0 Bft)
01.07.2013 02:15 6,9 C 90 % 1023,2 hPa 0,0 l/m 0,0 km/h (0 Bft) NO 45 5,4 C 6,5 C 0,0 km/h (0 Bft)
01.07.2013 02:20 6,9 C 90 % 1023,2 hPa 0,0 l/m 0,0 km/h (0 Bft) N 360 5,4 C 6,5 C 0,0 km/h (0 Bft)
01.07.2013 02:25 7,0 C 90 % 1023,2 hPa 0,0 l/m 0,2 km/h (0 Bft) O 90 5,5 C 6,6 C 0,0 km/h (0 Bft)
01.07.2013 02:30 6,8 C 90 % 1023,2 hPa 0,0 l/m 0,2 km/h (0 Bft) O 90 5,3 C 6,6 C 0,0 km/h (0 Bft)
01.07.2013 02:35 6,7 C 90 % 1023,2 hPa 0,0 l/m 0,0 km/h (0 Bft) N 360 5,2 C 6,6 C 0,0 km/h (0 Bft)
01.07.2013 02:40 6,5 C 90 % 1023,2 hPa 0,0 l/m 0,0 km/h (0 Bft) N 360 5,0 C 6,3 C 0,0 km/h (0 Bft)
01.07.2013 02:45 6,5 C 90 % 1023,1 hPa 0,0 l/m 0,0 km/h (0 Bft) N-NO 22 5,0 C 6,3 C 0,0 km/h (0 Bft)
01.07.2013 02:50 6,3 C 90 % 1023,1 hPa 0,0 l/m 0,0 km/h (0 Bft) N 360 4,8 C 6,2 C 0,0 km/h (0 Bft)
01.07.2013 02:55 6,5 C 90 % 1023,1 hPa 0,0 l/m 0,0 km/h (0 Bft) N-NO 22 5,0 C 6,2 C 0,0 km/h (0 Bft)
01.07.2013 03:00 6,3 C 91 % 1023,1 hPa 0,0 l/m 0,0 km/h (0 Bft) W 270 4,9 C 6,3 C 0,0 km/h (0 Bft)
01.07.2013 03:05 6,4 C 91 % 1022,9 hPa 0,0 l/m 0,0 km/h (0 Bft) W 270 5,0 C 6,3 C 0,0 km/h (0 Bft)
01.07.2013 03:10 6,4 C 91 % 1022,9 hPa 0,0 l/m 0,0 km/h (0 Bft) W-NW 292 5,0 C 6,1 C 0,0 km/h (0 Bft)
01.07.2013 03:15 6,3 C 91 % 1022,9 hPa 0,0 l/m 0,0 km/h (0 Bft) W-NW 292 4,9 C 6,0 C 0,0 km/h (0 Bft)
01.07.2013 03:20 6,3 C 91 % 1022,9 hPa 0,0 l/m 0,0 km/h (0 Bft) N-NW 337 4,9 C 6,0 C 0,0 km/h (0 Bft)
01.07.2013 03:25 6,1 C 91 % 1022,8 hPa 0,0 l/m 0,0 km/h (0 Bft) N-NW 337 4,7 C 5,9 C 0,0 km/h (0 Bft)
01.07.2013 03:30 6,1 C 91 % 1022,8 hPa 0,0 l/m 0,0 km/h (0 Bft) N-NW 337 4,7 C 5,8 C 0,0 km/h (0 Bft)
01.07.2013 03:35 6,3 C 91 % 1022,8 hPa 0,0 l/m 0,0 km/h (0 Bft) N-NO 22 4,9 C 5,8 C 0,0 km/h (0 Bft)
01.07.2013 03:40 6,2 C 91 % 1022,8 hPa 0,0 l/m 0,0 km/h (0 Bft) N-NO 22 4,8 C 5,7 C 0,0 km/h (0 Bft)
01.07.2013 03:45 6,4 C 91 % 1022,8 hPa 0,0 l/m 0,0 km/h (0 Bft) N-NO 22 5,0 C 5,7 C 0,0 km/h (0 Bft)
01.07.2013 03:50 6,6 C 91 % 1022,8 hPa 0,0 l/m 0,3 km/h (0 Bft) O-SO 112 5,2 C 5,8 C 2,6 km/h (1 Bft)
01.07.2013 03:55 6,6 C 92 % 1022,8 hPa 0,0 l/m 0,5 km/h (0 Bft) S 180 5,4 C 6,0 C 0,0 km/h (0 Bft)
01.07.2013 04:00 6,5 C 92 % 1022,8 hPa 0,0 l/m 0,2 km/h (0 Bft) SO 135 5,3 C 6,1 C 0,0 km/h (0 Bft)
01.07.2013 04:05 6,4 C 92 % 1022,7 hPa 0,0 l/m 0,0 km/h (0 Bft) SW 225 5,2 C 5,9 C 0,0 km/h (0 Bft)
01.07.2013 04:10 6,3 C 92 % 1022,7 hPa 0,0 l/m 0,0 km/h (0 Bft) W-SW 247 5,1 C 6,0 C 0,0 km/h (0 Bft)
01.07.2013 04:15 6,1 C 91 % 1022,7 hPa 0,0 l/m 0,0 km/h (0 Bft) W-SW 247 4,7 C 5,9 C 0,0 km/h (0 Bft)
01.07.2013 04:20 6,0 C 91 % 1022,7 hPa 0,0 l/m 0,0 km/h (0 Bft) W-SW 247 4,6 C 5,9 C 0,0 km/h (0 Bft)
01.07.2013 04:25 6,1 C 91 % 1022,8 hPa 0,0 l/m 0,0 km/h (0 Bft) W-SW 247 4,7 C 5,8 C 0,0 km/h (0 Bft)
01.07.2013 04:30 6,1 C 91 % 1022,8 hPa 0,0 l/m 0,0 km/h (0 Bft) W-SW 247 4,7 C 5,7 C 0,0 km/h (0 Bft)
01.07.2013 04:35 5,9 C 93 % 1022,8 hPa 0,0 l/m 0,0 km/h (0 Bft) W-SW 247 4,9 C 5,7 C 0,0 km/h (0 Bft)
01.07.2013 04:40 5,9 C 93 % 1022,8 hPa 0,0 l/m 0,2 km/h (0 Bft) S 180 4,9 C 5,5 C 2,1 km/h (1 Bft)
01.07.2013 04:45 5,7 C 93 % 1022,5 hPa 0,0 l/m 0,2 km/h (0 Bft) W-SW 247 4,7 C 5,6 C 0,0 km/h (0 Bft)
01.07.2013 04:50 5,6 C 93 % 1022,5 hPa 0,0 l/m 0,2 km/h (0 Bft) W-SW 247 4,6 C 5,4 C 0,0 km/h (0 Bft)
01.07.2013 04:55 5,4 C 93 % 1022,5 hPa 0,0 l/m 0,0 km/h (0 Bft) O-NO 67 4,4 C 5,3 C 0,0 km/h (0 Bft)
01.07.2013 05:00 5,3 C 93 % 1022,5 hPa 0,0 l/m 0,2 km/h (0 Bft) N-NW 337 4,3 C 5,2 C 0,0 km/h (0 Bft)
01.07.2013 05:05 5,2 C 93 % 1022,3 hPa 0,0 l/m 0,2 km/h (0 Bft) N 360 4,2 C 5,1 C 0,0 km/h (0 Bft)
01.07.2013 05:10 5,2 C 93 % 1022,3 hPa 0,0 l/m 0,0 km/h (0 Bft) N-NW 337 4,2 C 5,0 C 0,0 km/h (0 Bft)
01.07.2013 05:15 5,4 C 93 % 1022,3 hPa 0,0 l/m 0,0 km/h (0 Bft) NO 45 4,4 C 5,0 C 0,0 km/h (0 Bft)
01.07.2013 05:20 5,2 C 93 % 1022,3 hPa 0,0 l/m 0,0 km/h (0 Bft) N-NO 22 4,2 C 5,0 C 0,0 km/h (0 Bft)
01.07.2013 05:25 5,2 C 93 % 1022,4 hPa 0,0 l/m 0,0 km/h (0 Bft) N 360 4,2 C 4,8 C 0,0 km/h (0 Bft)
01.07.2013 05:30 5,2 C 93 % 1022,4 hPa 0,0 l/m 0,0 km/h (0 Bft) N 360 4,2 C 4,8 C 0,0 km/h (0 Bft)
01.07.2013 05:35 5,1 C 93 % 1022,4 hPa 0,0 l/m 0,0 km/h (0 Bft) N-NW 337 4,1 C 4,8 C 0,0 km/h (0 Bft)
01.07.2013 05:40 5,1 C 93 % 1022,4 hPa 0,0 l/m 0,0 km/h (0 Bft) N-NW 337 4,1 C 4,8 C 0,0 km/h (0 Bft)
01.07.2013 05:45 5,2 C 93 % 1022,2 hPa 0,0 l/m 0,0 km/h (0 Bft) N-NO 22 4,2 C 4,9 C 0,0 km/h (0 Bft)
01.07.2013 05:50 5,1 C 93 % 1022,2 hPa 0,0 l/m 0,0 km/h (0 Bft) N-NO 22 4,1 C 5,2 C 0,0 km/h (0 Bft)
01.07.2013 05:55 5,2 C 93 % 1022,2 hPa 0,0 l/m 0,0 km/h (0 Bft) N-NO 22 4,2 C 5,3 C 0,0 km/h (0 Bft)
01.07.2013 06:00 5,3 C 93 % 1022,2 hPa 0,0 l/m 0,0 km/h (0 Bft) N-NO 22 4,3 C 5,3 C 0,0 km/h (0 Bft)
01.07.2013 06:05 5,6 C 93 % 1022,2 hPa 0,0 l/m 0,0 km/h (0 Bft) N 360 4,6 C 5,7 C 0,0 km/h (0 Bft)
01.07.2013 06:10 7,0 C 92 % 1022,2 hPa 0,0 l/m 0,0 km/h (0 Bft) N-NW 337 5,8 C 6,7 C 0,0 km/h (0 Bft)
01.07.2013 06:15 7,3 C 92 % 1022,2 hPa 0,0 l/m 0,0 km/h (0 Bft) N-NW 337 6,1 C 7,1 C 0,0 km/h (0 Bft)
01.07.2013 06:20 8,3 C 91 % 1022,2 hPa 0,0 l/m 0,0 km/h (0 Bft) N-NW 337 6,9 C 7,8 C 0,0 km/h (0 Bft)
01.07.2013 06:25 8,7 C 91 % 1022,1 hPa 0,0 l/m 0,0 km/h (0 Bft) N-NO 22 7,3 C 8,4 C 0,0 km/h (0 Bft)
01.07.2013 06:30 8,8 C 90 % 1022,1 hPa 0,0 l/m 0,0 km/h (0 Bft) N 360 7,3 C 9,2 C 0,0 km/h (0 Bft)
01.07.2013 06:35 9,4 C 90 % 1022,1 hPa 0,0 l/m 0,0 km/h (0 Bft) N 360 7,8 C 9,6 C 0,0 km/h (0 Bft)
01.07.2013 06:40 10,2 C 89 % 1022,1 hPa 0,0 l/m 0,0 km/h (0 Bft) N-NW 337 8,5 C 10,6 C 0,0 km/h (0 Bft)
01.07.2013 06:45 10,5 C 89 % 1022,1 hPa 0,0 l/m 0,0 km/h (0 Bft) NO 45 8,8 C 11,3 C 0,0 km/h (0 Bft)
01.07.2013 06:50 10,8 C 87 % 1022,1 hPa 0,0 l/m 0,0 km/h (0 Bft) N 360 8,7 C 12,3 C 0,0 km/h (0 Bft)
01.07.2013 06:55 11,2 C 86 % 1022,1 hPa 0,0 l/m 0,0 km/h (0 Bft) NO 45 8,9 C 12,6 C 0,0 km/h (0 Bft)
01.07.2013 07:00 12,3 C 82 % 1022,1 hPa 0,0 l/m 0,0 km/h (0 Bft) N-NO 22 9,3 C 13,5 C 0,0 km/h (0 Bft)
01.07.2013 07:05 12,7 C 79 % 1022,3 hPa 0,0 l/m 0,0 km/h (0 Bft) N 360 9,2 C 13,9 C 0,0 km/h (0 Bft)
01.07.2013 07:10 14,1 C 78 % 1022,3 hPa 0,0 l/m 0,0 km/h (0 Bft) NO 45 10,3 C 14,3 C 0,0 km/h (0 Bft)
01.07.2013 07:15 15,8 C 79 % 1022,3 hPa 0,0 l/m 0,0 km/h (0 Bft) NW 315 12,2 C 14,9 C 0,0 km/h (0 Bft)
01.07.2013 07:20 16,3 C 71 % 1022,3 hPa 0,0 l/m 0,0 km/h (0 Bft) NW 315 11,0 C 15,8 C 0,0 km/h (0 Bft)
01.07.2013 07:25 17,0 C 74 % 1022,1 hPa 0,0 l/m 0,0 km/h (0 Bft) NW 315 12,3 C 16,4 C 0,0 km/h (0 Bft)
01.07.2013 07:30 16,6 C 68 % 1022,1 hPa 0,0 l/m 0,0 km/h (0 Bft) W-NW 292 10,7 C 17,0 C 0,0 km/h (0 Bft)
01.07.2013 07:35 16,6 C 65 % 1022,1 hPa 0,0 l/m 0,0 km/h (0 Bft) N 360 10,0 C 17,5 C 0,0 km/h (0 Bft)
01.07.2013 07:40 17,3 C 65 % 1022,1 hPa 0,0 l/m 0,0 km/h (0 Bft) N-NO 22 10,7 C 18,3 C 0,0 km/h (0 Bft)
01.07.2013 07:45 17,4 C 63 % 1022,1 hPa 0,0 l/m 0,0 km/h (0 Bft) NW 315 10,3 C 18,6 C 0,0 km/h (0 Bft)
01.07.2013 07:50 18,5 C 61 % 1022,1 hPa 0,0 l/m 0,0 km/h (0 Bft) N-NO 22 10,8 C 19,1 C 0,0 km/h (0 Bft)
01.07.2013 07:55 18,8 C 60 % 1022,1 hPa 0,0 l/m 0,0 km/h (0 Bft) W-NW 292 10,9 C 19,7 C 0,0 km/h (0 Bft)
01.07.2013 08:00 19,6 C 61 % 1022,1 hPa 0,0 l/m 0,0 km/h (0 Bft) W-NW 292 11,9 C 20,2 C 0,0 km/h (0 Bft)
01.07.2013 08:05 20,8 C 59 % 1022,2 hPa 0,0 l/m 0,0 km/h (0 Bft) N-NO 22 12,5 C 20,6 C 0,0 km/h (0 Bft)
01.07.2013 08:10 20,3 C 58 % 1022,2 hPa 0,0 l/m 0,2 km/h (0 Bft) O 90 11,8 C 20,9 C 0,0 km/h (0 Bft)
01.07.2013 08:15 20,4 C 57 % 1022,2 hPa 0,0 l/m 0,3 km/h (0 Bft) W 270 11,6 C 21,1 C 2,1 km/h (1 Bft)
01.07.2013 08:20 20,9 C 56 % 1022,2 hPa 0,0 l/m 0,2 km/h (0 Bft) W-NW 292 11,8 C 21,7 C 0,0 km/h (0 Bft)
01.07.2013 08:25 20,9 C 57 % 1022,4 hPa 0,0 l/m 0,2 km/h (0 Bft) W 270 12,1 C 22,0 C 0,0 km/h (0 Bft)
01.07.2013 08:30 21,0 C 54 % 1022,4 hPa 0,0 l/m 0,5 km/h (0 Bft) W 270 11,3 C 22,0 C 2,4 km/h (1 Bft)
01.07.2013 08:35 20,9 C 51 % 1022,4 hPa 0,0 l/m 1,0 km/h (0 Bft) NW 315 10,4 C 21,8 C 2,1 km/h (1 Bft)
01.07.2013 08:40 21,1 C 52 % 1022,4 hPa 0,0 l/m 1,1 km/h (1 Bft) W-NW 292 10,9 C 21,9 C 1,8 km/h (1 Bft)
01.07.2013 08:45 22,0 C 49 % 1022,5 hPa 0,0 l/m 0,8 km/h (0 Bft) W-NW 292 10,8 C 22,3 C 2,1 km/h (1 Bft)
01.07.2013 08:50 21,7 C 48 % 1022,5 hPa 0,0 l/m 1,3 km/h (1 Bft) N-NW 337 10,2 C 22,3 C 3,5 km/h (1 Bft)
01.07.2013 08:55 20,9 C 48 % 1022,5 hPa 0,0 l/m 1,8 km/h (1 Bft) W-NW 292 9,5 C 22,0 C 0,0 km/h (0 Bft)
01.07.2013 09:00 22,0 C 46 % 1022,5 hPa 0,0 l/m 1,6 km/h (1 Bft) W-NW 292 9,8 C 22,0 C 3,9 km/h (1 Bft)
01.07.2013 09:05 21,4 C 48 % 1022,4 hPa 0,0 l/m 1,8 km/h (1 Bft) W 270 9,9 C 22,1 C 3,1 km/h (1 Bft)
01.07.2013 09:10 22,4 C 48 % 1022,4 hPa 0,0 l/m 1,9 km/h (1 Bft) W-NW 292 10,8 C 22,0 C 4,5 km/h (1 Bft)
01.07.2013 09:15 22,4 C 48 % 1022,4 hPa 0,0 l/m 2,1 km/h (1 Bft) W-NW 292 10,8 C 22,1 C 0,0 km/h (0 Bft)
01.07.2013 09:20 23,2 C 47 % 1022,4 hPa 0,0 l/m 2,3 km/h (1 Bft) W-NW 292 11,3 C 22,2 C 4,8 km/h (1 Bft)
01.07.2013 09:25 22,6 C 46 % 1022,8 hPa 0,0 l/m 2,3 km/h (1 Bft) W 270 10,4 C 22,2 C 0,0 km/h (0 Bft)
01.07.2013 09:30 22,9 C 46 % 1022,8 hPa 0,0 l/m 2,6 km/h (1 Bft) W-NW 292 10,7 C 22,4 C 6,3 km/h (2 Bft)
01.07.2013 09:35 22,7 C 46 % 1022,8 hPa 0,0 l/m 2,4 km/h (1 Bft) N 360 10,5 C 22,5 C 0,0 km/h (0 Bft)
01.07.2013 09:40 22,3 C 45 % 1022,8 hPa 0,0 l/m 2,7 km/h (1 Bft) W-SW 247 9,8 C 22,7 C 6,1 km/h (2 Bft)
01.07.2013 09:45 22,6 C 43 % 1022,9 hPa 0,0 l/m 3,2 km/h (1 Bft) W-NW 292 9,4 C 22,3 C 5,8 km/h (2 Bft)
01.07.2013 09:50 22,3 C 45 % 1022,9 hPa 0,0 l/m 3,5 km/h (1 Bft) W-SW 247 9,8 C 22,2 C 7,7 km/h (2 Bft)
01.07.2013 09:55 22,5 C 43 % 1022,9 hPa 0,0 l/m 3,2 km/h (1 Bft) W-NW 292 9,3 C 22,5 C 7,9 km/h (2 Bft)
01.07.2013 10:00 22,3 C 43 % 1022,9 hPa 0,0 l/m 3,7 km/h (1 Bft) W 270 9,1 C 22,3 C 9,5 km/h (2 Bft)
01.07.2013 10:05 22,1 C 43 % 1023,1 hPa 0,0 l/m 4,2 km/h (1 Bft) W 270 8,9 C 22,1 C 3,9 km/h (1 Bft)
01.07.2013 10:10 21,7 C 44 % 1023,1 hPa 0,0 l/m 3,5 km/h (1 Bft) N-NW 337 8,9 C 22,3 C 1,8 km/h (1 Bft)
01.07.2013 10:15 22,1 C 43 % 1023,1 hPa 0,0 l/m 3,2 km/h (1 Bft) N-NO 22 8,9 C 22,5 C 4,7 km/h (1 Bft)
01.07.2013 10:20 22,0 C 41 % 1023,1 hPa 0,0 l/m 2,4 km/h (1 Bft) N-NO 22 8,1 C 22,8 C 3,2 km/h (1 Bft)
01.07.2013 10:25 22,0 C 42 % 1023,1 hPa 0,0 l/m 2,7 km/h (1 Bft) N-NO 22 8,5 C 23,0 C 4,2 km/h (1 Bft)
01.07.2013 10:30 21,7 C 42 % 1023,1 hPa 0,0 l/m 3,7 km/h (1 Bft) NW 315 8,2 C 22,7 C 3,9 km/h (1 Bft)
01.07.2013 10:35 22,0 C 41 % 1023,1 hPa 0,0 l/m 3,9 km/h (1 Bft) N 360 8,1 C 22,7 C 3,1 km/h (1 Bft)
01.07.2013 10:40 22,2 C 42 % 1023,1 hPa 0,0 l/m 3,1 km/h (1 Bft) W-SW 247 8,7 C 23,0 C 0,0 km/h (0 Bft)
01.07.2013 10:45 21,9 C 42 % 1023,1 hPa 0,0 l/m 3,5 km/h (1 Bft) N 360 8,4 C 23,2 C 6,0 km/h (2 Bft)
01.07.2013 10:50 22,9 C 43 % 1023,1 hPa 0,0 l/m 2,6 km/h (1 Bft) W-SW 247 9,6 C 23,5 C 2,3 km/h (1 Bft)
01.07.2013 10:55 22,6 C 41 % 1023,1 hPa 0,0 l/m 3,1 km/h (1 Bft) N 360 8,7 C 23,7 C 7,2 km/h (2 Bft)
01.07.2013 11:00 22,4 C 41 % 1023,1 hPa 0,0 l/m 3,5 km/h (1 Bft) NO 45 8,5 C 23,5 C 1,8 km/h (1 Bft)
01.07.2013 11:05 23,2 C 40 % 1023,0 hPa 0,0 l/m 2,9 km/h (1 Bft) O 90 8,8 C 23,9 C 2,1 km/h (1 Bft)
01.07.2013 11:10 22,6 C 42 % 1023,0 hPa 0,0 l/m 2,9 km/h (1 Bft) NO 45 9,0 C 24,0 C 1,8 km/h (1 Bft)
01.07.2013 11:15 22,8 C 41 % 1023,0 hPa 0,0 l/m 2,7 km/h (1 Bft) N-NW 337 8,9 C 24,1 C 3,4 km/h (1 Bft)
01.07.2013 11:20 22,6 C 41 % 1023,0 hPa 0,0 l/m 3,1 km/h (1 Bft) W 270 8,7 C 23,8 C 4,5 km/h (1 Bft)
01.07.2013 11:25 23,3 C 40 % 1023,2 hPa 0,0 l/m 4,2 km/h (1 Bft) N-NW 337 8,9 C 23,7 C 6,1 km/h (2 Bft)
01.07.2013 11:30 23,5 C 40 % 1023,2 hPa 0,0 l/m 3,5 km/h (1 Bft) W 270 9,1 C 24,0 C 9,7 km/h (2 Bft)
01.07.2013 11:35 23,1 C 39 % 1023,2 hPa 0,0 l/m 3,7 km/h (1 Bft) N-NW 337 8,4 C 23,7 C 6,0 km/h (2 Bft)
01.07.2013 11:40 24,0 C 39 % 1023,2 hPa 0,0 l/m 3,1 km/h (1 Bft) W-NW 292 9,2 C 23,9 C 3,5 km/h (1 Bft)
01.07.2013 11:45 23,3 C 37 % 1023,2 hPa 0,0 l/m 2,4 km/h (1 Bft) W-SW 247 7,8 C 24,3 C 2,4 km/h (1 Bft)
01.07.2013 11:50 24,4 C 37 % 1023,2 hPa 0,0 l/m 2,9 km/h (1 Bft) W-SW 247 8,8 C 24,3 C 5,5 km/h (1 Bft)
01.07.2013 11:55 24,3 C 37 % 1023,2 hPa 0,0 l/m 3,4 km/h (1 Bft) W-SW 247 8,7 C 24,3 C 6,9 km/h (2 Bft)
01.07.2013 12:00 23,9 C 40 % 1023,2 hPa 0,0 l/m 3,9 km/h (1 Bft) W 270 9,5 C 24,2 C 5,1 km/h (1 Bft)
01.07.2013 12:05 24,2 C 39 % 1023,0 hPa 0,0 l/m 4,5 km/h (1 Bft) NW 315 9,4 C 23,9 C 7,6 km/h (2 Bft)
01.07.2013 12:10 23,2 C 39 % 1023,0 hPa 0,0 l/m 5,0 km/h (1 Bft) N-NW 337 8,5 C 23,4 C 6,9 km/h (2 Bft)
01.07.2013 12:15 23,5 C 40 % 1023,0 hPa 0,0 l/m 4,0 km/h (1 Bft) W 270 9,1 C 23,8 C 4,0 km/h (1 Bft)
01.07.2013 12:20 23,9 C 40 % 1023,0 hPa 0,0 l/m 2,9 km/h (1 Bft) NO 45 9,5 C 24,2 C 0,0 km/h (0 Bft)
01.07.2013 12:25 23,4 C 39 % 1023,2 hPa 0,0 l/m 3,2 km/h (1 Bft) N-NO 22 8,6 C 24,7 C 4,5 km/h (1 Bft)
01.07.2013 12:30 23,3 C 38 % 1023,2 hPa 0,0 l/m 3,5 km/h (1 Bft) N-NW 337 8,2 C 24,7 C 3,7 km/h (1 Bft)
01.07.2013 12:35 23,7 C 40 % 1023,2 hPa 0,0 l/m 3,4 km/h (1 Bft) SW 225 9,3 C 24,8 C 5,0 km/h (1 Bft)
01.07.2013 12:40 23,2 C 41 % 1023,2 hPa 0,0 l/m 3,9 km/h (1 Bft) W-NW 292 9,2 C 24,6 C 3,9 km/h (1 Bft)
01.07.2013 12:45 23,2 C 40 % 1022,9 hPa 0,0 l/m 5,1 km/h (1 Bft) W-NW 292 8,8 C 24,2 C 8,2 km/h (2 Bft)
01.07.2013 12:50 23,0 C 43 % 1022,9 hPa 0,0 l/m 4,5 km/h (1 Bft) W-NW 292 9,7 C 24,2 C 10,1 km/h (2 Bft)
01.07.2013 12:55 23,5 C 43 % 1022,9 hPa 0,0 l/m 3,9 km/h (1 Bft) SW 225 10,2 C 24,4 C 7,1 km/h (2 Bft)
01.07.2013 13:00 23,6 C 42 % 1022,9 hPa 0,0 l/m 3,4 km/h (1 Bft) S-SO 157 9,9 C 24,6 C 1,9 km/h (1 Bft)
01.07.2013 13:05 23,5 C 40 % 1022,9 hPa 0,0 l/m 3,2 km/h (1 Bft) S-SW 202 9,1 C 25,0 C 4,3 km/h (1 Bft)
01.07.2013 13:10 23,9 C 44 % 1022,9 hPa 0,0 l/m 3,5 km/h (1 Bft) W-NW 292 10,9 C 25,0 C 5,8 km/h (2 Bft)
01.07.2013 13:15 23,2 C 43 % 1022,9 hPa 0,0 l/m 3,7 km/h (1 Bft) W-SW 247 9,9 C 25,2 C 4,2 km/h (1 Bft)
01.07.2013 13:20 22,6 C 43 % 1022,9 hPa 0,0 l/m 4,2 km/h (1 Bft) NO 45 9,4 C 25,1 C 10,6 km/h (2 Bft)
01.07.2013 13:25 22,7 C 45 % 1023,0 hPa 0,0 l/m 3,9 km/h (1 Bft) O 90 10,1 C 24,9 C 0,0 km/h (0 Bft)
01.07.2013 13:30 21,6 C 46 % 1023,0 hPa 0,0 l/m 3,9 km/h (1 Bft) N-NW 337 9,5 C 24,1 C 4,2 km/h (1 Bft)
01.07.2013 13:35 22,9 C 46 % 1023,0 hPa 0,0 l/m 3,9 km/h (1 Bft) W-SW 247 10,7 C 23,4 C 6,1 km/h (2 Bft)
01.07.2013 13:40 22,6 C 47 % 1023,0 hPa 0,0 l/m 3,7 km/h (1 Bft) W-SW 247 10,7 C 24,2 C 2,3 km/h (1 Bft)
01.07.2013 13:45 23,7 C 45 % 1022,9 hPa 0,0 l/m 3,5 km/h (1 Bft) W-SW 247 11,1 C 24,1 C 4,2 km/h (1 Bft)
01.07.2013 13:50 23,6 C 40 % 1022,9 hPa 0,0 l/m 5,5 km/h (1 Bft) N-NW 337 9,2 C 24,2 C 15,8 km/h (3 Bft)
01.07.2013 13:55 23,2 C 43 % 1022,9 hPa 0,0 l/m 5,5 km/h (1 Bft) W-NW 292 9,9 C 24,2 C 6,1 km/h (2 Bft)
01.07.2013 14:00 24,1 C 39 % 1022,9 hPa 0,0 l/m 3,9 km/h (1 Bft) NO 45 9,3 C 24,6 C 6,0 km/h (2 Bft)
01.07.2013 14:05 23,3 C 41 % 1022,8 hPa 0,0 l/m 4,3 km/h (1 Bft) S-SW 202 9,3 C 24,6 C 2,7 km/h (1 Bft)
01.07.2013 14:10 24,5 C 40 % 1022,8 hPa 0,0 l/m 3,2 km/h (1 Bft) NW 315 10,0 C 24,6 C 2,4 km/h (1 Bft)
01.07.2013 14:15 25,0 C 39 % 1022,8 hPa 0,0 l/m 2,3 km/h (1 Bft) O-SO 112 10,1 C 25,8 C 3,5 km/h (1 Bft)
01.07.2013 14:20 24,5 C 40 % 1022,8 hPa 0,0 l/m 2,7 km/h (1 Bft) W-NW 292 10,0 C 26,4 C 8,5 km/h (2 Bft)
01.07.2013 14:25 23,8 C 39 % 1022,6 hPa 0,0 l/m 3,7 km/h (1 Bft) N-NO 22 9,0 C 25,9 C 0,0 km/h (0 Bft)
01.07.2013 14:30 24,3 C 40 % 1022,6 hPa 0,0 l/m 3,2 km/h (1 Bft) W 270 9,8 C 26,4 C 3,7 km/h (1 Bft)
01.07.2013 14:35 24,1 C 37 % 1022,6 hPa 0,0 l/m 3,1 km/h (1 Bft) NO 45 8,5 C 26,4 C 4,5 km/h (1 Bft)
01.07.2013 14:40 24,2 C 39 % 1022,6 hPa 0,0 l/m 4,5 km/h (1 Bft) W-NW 292 9,4 C 25,8 C 4,8 km/h (1 Bft)
01.07.2013 14:45 24,3 C 40 % 1022,5 hPa 0,0 l/m 5,0 km/h (1 Bft) S 180 9,8 C 25,6 C 4,8 km/h (1 Bft)
01.07.2013 14:50 24,6 C 40 % 1022,5 hPa 0,0 l/m 5,0 km/h (1 Bft) W-NW 292 10,1 C 25,3 C 3,7 km/h (1 Bft)
01.07.2013 14:55 25,1 C 36 % 1022,5 hPa 0,0 l/m 4,2 km/h (1 Bft) W 270 9,0 C 25,7 C 3,2 km/h (1 Bft)
01.07.2013 15:00 24,8 C 39 % 1022,5 hPa 0,0 l/m 2,9 km/h (1 Bft) W-SW 247 9,9 C 26,6 C 2,9 km/h (1 Bft)
01.07.2013 15:05 25,2 C 37 % 1022,4 hPa 0,0 l/m 2,6 km/h (1 Bft) N 360 9,5 C 26,8 C 2,4 km/h (1 Bft)
01.07.2013 15:10 24,6 C 36 % 1022,4 hPa 0,0 l/m 2,1 km/h (1 Bft) S-SO 157 8,5 C 27,7 C 0,0 km/h (0 Bft)
01.07.2013 15:15 25,5 C 38 % 1022,4 hPa 0,0 l/m 2,3 km/h (1 Bft) S 180 10,1 C 27,9 C 1,6 km/h (1 Bft)
01.07.2013 15:20 25,2 C 38 % 1022,4 hPa 0,0 l/m 4,3 km/h (1 Bft) W-NW 292 9,9 C 27,0 C 6,3 km/h (2 Bft)
01.07.2013 15:25 24,8 C 37 % 1022,4 hPa 0,0 l/m 5,0 km/h (1 Bft) W-NW 292 9,1 C 26,5 C 4,8 km/h (1 Bft)
01.07.2013 15:30 25,0 C 38 % 1022,4 hPa 0,0 l/m 3,9 km/h (1 Bft) SO 135 9,7 C 26,5 C 6,6 km/h (2 Bft)
01.07.2013 15:35 24,1 C 39 % 1022,4 hPa 0,0 l/m 3,5 km/h (1 Bft) S-SO 157 9,3 C 26,2 C 2,7 km/h (1 Bft)
01.07.2013 15:40 25,5 C 39 % 1022,4 hPa 0,0 l/m 2,7 km/h (1 Bft) O-NO 67 10,5 C 27,1 C 2,7 km/h (1 Bft)
01.07.2013 15:45 24,7 C 38 % 1022,3 hPa 0,0 l/m 2,1 km/h (1 Bft) NW 315 9,4 C 27,9 C 3,9 km/h (1 Bft)
01.07.2013 15:50 24,6 C 37 % 1022,3 hPa 0,0 l/m 3,4 km/h (1 Bft) N-NW 337 8,9 C 27,8 C 4,3 km/h (1 Bft)
01.07.2013 15:55 25,3 C 38 % 1022,3 hPa 0,0 l/m 2,6 km/h (1 Bft) NW 315 9,9 C 28,1 C 3,5 km/h (1 Bft)
01.07.2013 16:00 25,0 C 38 % 1022,3 hPa 0,0 l/m 3,1 km/h (1 Bft) O 90 9,7 C 28,5 C 6,1 km/h (2 Bft)
01.07.2013 16:05 24,7 C 40 % 1022,1 hPa 0,0 l/m 4,2 km/h (1 Bft) N 360 10,2 C 28,3 C 8,5 km/h (2 Bft)
01.07.2013 16:10 24,7 C 40 % 1022,1 hPa 0,0 l/m 5,8 km/h (2 Bft) N-NW 337 10,2 C 27,7 C 11,3 km/h (2 Bft)
01.07.2013 16:15 24,6 C 41 % 1022,1 hPa 0,0 l/m 5,3 km/h (1 Bft) N-NW 337 10,5 C 27,5 C 10,1 km/h (2 Bft)
01.07.2013 16:20 24,6 C 41 % 1022,1 hPa 0,0 l/m 5,1 km/h (1 Bft) W-SW 247 10,5 C 27,4 C 3,4 km/h (1 Bft)
01.07.2013 16:25 24,1 C 40 % 1022,2 hPa 0,0 l/m 5,8 km/h (2 Bft) NO 45 9,6 C 27,6 C 6,4 km/h (2 Bft)
01.07.2013 16:30 24,0 C 41 % 1022,2 hPa 0,0 l/m 5,3 km/h (1 Bft) N 360 9,9 C 27,5 C 7,9 km/h (2 Bft)
01.07.2013 16:35 23,9 C 45 % 1022,2 hPa 0,0 l/m 5,1 km/h (1 Bft) N-NW 337 11,2 C 27,6 C 8,4 km/h (2 Bft)
01.07.2013 16:40 23,8 C 42 % 1022,2 hPa 0,0 l/m 5,3 km/h (1 Bft) N-NW 337 10,1 C 27,5 C 7,7 km/h (2 Bft)
01.07.2013 16:45 23,5 C 42 % 1022,0 hPa 0,0 l/m 5,8 km/h (2 Bft) N-NW 337 9,8 C 27,2 C 6,4 km/h (2 Bft)
01.07.2013 16:50 23,1 C 44 % 1022,0 hPa 0,0 l/m 5,3 km/h (1 Bft) W-NW 292 10,2 C 27,0 C 2,3 km/h (1 Bft)
01.07.2013 16:55 22,9 C 45 % 1022,0 hPa 0,0 l/m 5,0 km/h (1 Bft) N 360 10,3 C 27,2 C 7,9 km/h (2 Bft)
01.07.2013 17:00 22,6 C 48 % 1022,0 hPa 0,0 l/m 5,0 km/h (1 Bft) W-NW 292 11,0 C 27,0 C 4,5 km/h (1 Bft)
01.07.2013 17:05 22,5 C 47 % 1021,9 hPa 0,0 l/m 4,8 km/h (1 Bft) N 360 10,6 C 27,2 C 4,7 km/h (1 Bft)
01.07.2013 17:10 22,1 C 47 % 1021,9 hPa 0,0 l/m 3,7 km/h (1 Bft) N-NW 337 10,3 C 27,6 C 2,1 km/h (1 Bft)
01.07.2013 17:15 22,0 C 47 % 1021,9 hPa 0,0 l/m 4,0 km/h (1 Bft) NO 45 10,2 C 28,0 C 4,5 km/h (1 Bft)
01.07.2013 17:20 22,4 C 48 % 1021,9 hPa 0,0 l/m 3,2 km/h (1 Bft) N 360 10,8 C 28,5 C 4,8 km/h (1 Bft)
01.07.2013 17:25 22,3 C 48 % 1021,8 hPa 0,0 l/m 2,4 km/h (1 Bft) S-SO 157 10,8 C 29,1 C 2,1 km/h (1 Bft)
01.07.2013 17:30 22,4 C 48 % 1021,8 hPa 0,0 l/m 1,8 km/h (1 Bft) S 180 10,8 C 30,1 C 2,9 km/h (1 Bft)
01.07.2013 17:35 22,6 C 49 % 1021,8 hPa 0,0 l/m 2,9 km/h (1 Bft) W-SW 247 11,3 C 30,0 C 7,7 km/h (2 Bft)
01.07.2013 17:40 22,3 C 48 % 1021,8 hPa 0,0 l/m 4,8 km/h (1 Bft) W-SW 247 10,8 C 28,8 C 4,3 km/h (1 Bft)
01.07.2013 17:45 22,3 C 48 % 1021,6 hPa 0,0 l/m 5,1 km/h (1 Bft) N 360 10,8 C 28,6 C 6,9 km/h (2 Bft)
01.07.2013 17:50 22,3 C 49 % 1021,6 hPa 0,0 l/m 3,9 km/h (1 Bft) N-NW 337 11,1 C 28,7 C 8,0 km/h (2 Bft)
01.07.2013 17:55 22,2 C 48 % 1021,6 hPa 0,0 l/m 3,7 km/h (1 Bft) N 360 10,7 C 28,7 C 4,5 km/h (1 Bft)
01.07.2013 18:00 22,0 C 48 % 1021,6 hPa 0,0 l/m 3,7 km/h (1 Bft) W-NW 292 10,5 C 28,4 C 0,0 km/h (0 Bft)
01.07.2013 18:05 22,0 C 48 % 1021,6 hPa 0,0 l/m 3,1 km/h (1 Bft) O-NO 67 10,5 C 28,8 C 2,6 km/h (1 Bft)
01.07.2013 18:10 22,1 C 49 % 1021,6 hPa 0,0 l/m 2,7 km/h (1 Bft) W-NW 292 10,9 C 28,8 C 3,5 km/h (1 Bft)
01.07.2013 18:15 22,2 C 48 % 1021,6 hPa 0,0 l/m 2,7 km/h (1 Bft) N-NO 22 10,7 C 28,8 C 6,1 km/h (2 Bft)
01.07.2013 18:20 22,1 C 49 % 1021,6 hPa 0,0 l/m 3,1 km/h (1 Bft) W-SW 247 10,9 C 28,5 C 2,9 km/h (1 Bft)
01.07.2013 18:25 22,2 C 49 % 1021,6 hPa 0,0 l/m 3,5 km/h (1 Bft) N-NW 337 11,0 C 28,2 C 3,7 km/h (1 Bft)
01.07.2013 18:30 21,9 C 49 % 1021,6 hPa 0,0 l/m 3,2 km/h (1 Bft) N 360 10,7 C 28,2 C 5,5 km/h (1 Bft)
01.07.2013 18:35 22,1 C 49 % 1021,6 hPa 0,0 l/m 3,5 km/h (1 Bft) W-NW 292 10,9 C 28,0 C 4,7 km/h (1 Bft)
01.07.2013 18:40 22,1 C 49 % 1021,6 hPa 0,0 l/m 3,9 km/h (1 Bft) NW 315 10,9 C 27,5 C 6,6 km/h (2 Bft)
01.07.2013 18:45 22,0 C 49 % 1021,1 hPa 0,0 l/m 3,9 km/h (1 Bft) N-NW 337 10,8 C 27,4 C 0,0 km/h (0 Bft)
01.07.2013 18:50 21,6 C 50 % 1021,1 hPa 0,0 l/m 4,2 km/h (1 Bft) N 360 10,7 C 27,1 C 4,3 km/h (1 Bft)
01.07.2013 18:55 21,6 C 51 % 1021,1 hPa 0,0 l/m 3,4 km/h (1 Bft) NW 315 11,0 C 27,2 C 4,7 km/h (1 Bft)
01.07.2013 19:00 21,6 C 49 % 1021,1 hPa 0,0 l/m 2,7 km/h (1 Bft) W-NW 292 10,4 C 27,0 C 3,5 km/h (1 Bft)
01.07.2013 19:05 21,5 C 50 % 1020,7 hPa 0,0 l/m 2,7 km/h (1 Bft) NO 45 10,6 C 27,2 C 0,0 km/h (0 Bft)
01.07.2013 19:10 21,5 C 52 % 1020,7 hPa 0,0 l/m 1,9 km/h (1 Bft) W-NW 292 11,2 C 27,5 C 2,4 km/h (1 Bft)
01.07.2013 19:15 21,4 C 52 % 1020,7 hPa 0,0 l/m 2,1 km/h (1 Bft) N-NW 337 11,1 C 27,7 C 4,2 km/h (1 Bft)
01.07.2013 19:20 21,4 C 52 % 1020,7 hPa 0,0 l/m 2,4 km/h (1 Bft) W-NW 292 11,1 C 27,3 C 0,0 km/h (0 Bft)
01.07.2013 19:25 21,1 C 53 % 1020,6 hPa 0,0 l/m 2,3 km/h (1 Bft) NW 315 11,1 C 27,4 C 5,0 km/h (1 Bft)
01.07.2013 19:30 21,1 C 52 % 1020,6 hPa 0,0 l/m 2,3 km/h (1 Bft) W-NW 292 10,9 C 27,2 C 3,5 km/h (1 Bft)
01.07.2013 19:35 21,1 C 53 % 1020,6 hPa 0,0 l/m 2,4 km/h (1 Bft) N-NW 337 11,1 C 27,1 C 1,6 km/h (1 Bft)
01.07.2013 19:40 20,9 C 53 % 1020,6 hPa 0,0 l/m 1,4 km/h (1 Bft) S-SO 157 11,0 C 27,2 C 2,6 km/h (1 Bft)
01.07.2013 19:45 20,8 C 53 % 1020,6 hPa 0,0 l/m 1,3 km/h (1 Bft) W-NW 292 10,9 C 27,3 C 1,9 km/h (1 Bft)
01.07.2013 19:50 20,7 C 55 % 1020,6 hPa 0,0 l/m 1,9 km/h (1 Bft) N-NW 337 11,3 C 26,7 C 3,4 km/h (1 Bft)
01.07.2013 19:55 20,6 C 55 % 1020,6 hPa 0,0 l/m 2,6 km/h (1 Bft) NO 45 11,2 C 26,3 C 2,9 km/h (1 Bft)
01.07.2013 20:00 20,3 C 56 % 1020,6 hPa 0,0 l/m 2,1 km/h (1 Bft) O-SO 112 11,2 C 26,0 C 1,8 km/h (1 Bft)
01.07.2013 20:05 20,2 C 56 % 1020,6 hPa 0,0 l/m 1,6 km/h (1 Bft) W-NW 292 11,1 C 25,8 C 0,0 km/h (0 Bft)
01.07.2013 20:10 20,1 C 55 % 1020,6 hPa 0,0 l/m 1,9 km/h (1 Bft) N-NW 337 10,8 C 25,3 C 2,1 km/h (1 Bft)
01.07.2013 20:15 20,0 C 57 % 1020,6 hPa 0,0 l/m 1,8 km/h (1 Bft) NO 45 11,2 C 25,1 C 0,0 km/h (0 Bft)
01.07.2013 20:20 19,6 C 57 % 1020,6 hPa 0,0 l/m 0,8 km/h (0 Bft) N 360 10,8 C 25,2 C 2,1 km/h (1 Bft)
01.07.2013 20:25 19,4 C 58 % 1020,7 hPa 0,0 l/m 0,8 km/h (0 Bft) N-NW 337 10,9 C 24,9 C 0,0 km/h (0 Bft)
01.07.2013 20:30 19,1 C 59 % 1020,7 hPa 0,0 l/m 1,4 km/h (1 Bft) NO 45 10,9 C 24,3 C 2,9 km/h (1 Bft)
01.07.2013 20:35 19,0 C 59 % 1020,7 hPa 0,0 l/m 1,0 km/h (0 Bft) NO 45 10,8 C 23,9 C 0,0 km/h (0 Bft)
01.07.2013 20:40 18,5 C 59 % 1020,7 hPa 0,0 l/m 0,5 km/h (0 Bft) O 90 10,3 C 23,5 C 1,6 km/h (1 Bft)
01.07.2013 20:45 18,1 C 60 % 1020,4 hPa 0,0 l/m 0,3 km/h (0 Bft) NO 45 10,2 C 23,1 C 1,8 km/h (1 Bft)
01.07.2013 20:50 17,9 C 61 % 1020,4 hPa 0,0 l/m 0,8 km/h (0 Bft) O-SO 112 10,3 C 22,3 C 0,0 km/h (0 Bft)
01.07.2013 20:55 17,7 C 62 % 1020,4 hPa 0,0 l/m 1,1 km/h (1 Bft) O 90 10,3 C 21,8 C 2,3 km/h (1 Bft)
01.07.2013 21:00 17,2 C 63 % 1020,4 hPa 0,0 l/m 1,0 km/h (0 Bft) O-NO 67 10,1 C 20,1 C 0,0 km/h (0 Bft)
01.07.2013 21:05 17,0 C 65 % 1020,4 hPa 0,0 l/m 1,6 km/h (1 Bft) NO 45 10,4 C 18,9 C 2,9 km/h (1 Bft)
01.07.2013 21:10 16,7 C 66 % 1020,4 hPa 0,0 l/m 2,7 km/h (1 Bft) NO 45 10,3 C 17,6 C 4,3 km/h (1 Bft)
01.07.2013 21:15 16,5 C 67 % 1020,4 hPa 0,0 l/m 3,4 km/h (1 Bft) NO 45 10,4 C 16,8 C 2,9 km/h (1 Bft)
01.07.2013 21:20 16,0 C 68 % 1020,4 hPa 0,0 l/m 3,2 km/h (1 Bft) NO 45 10,1 C 16,1 C 2,9 km/h (1 Bft)
01.07.2013 21:25 15,9 C 69 % 1020,4 hPa 0,0 l/m 2,9 km/h (1 Bft) NO 45 10,2 C 15,7 C 3,5 km/h (1 Bft)
01.07.2013 21:30 15,3 C 71 % 1020,4 hPa 0,0 l/m 2,9 km/h (1 Bft) O-SO 112 10,1 C 15,1 C 2,4 km/h (1 Bft)
01.07.2013 21:35 14,8 C 71 % 1020,4 hPa 0,0 l/m 1,9 km/h (1 Bft) O-SO 112 9,6 C 14,8 C 0,0 km/h (0 Bft)
01.07.2013 21:40 14,2 C 73 % 1020,4 hPa 0,0 l/m 0,8 km/h (0 Bft) O 90 9,4 C 14,2 C 2,1 km/h (1 Bft)
01.07.2013 21:45 14,2 C 75 % 1020,4 hPa 0,0 l/m 1,4 km/h (1 Bft) O 90 9,8 C 13,9 C 3,9 km/h (1 Bft)
01.07.2013 21:50 14,2 C 77 % 1020,4 hPa 0,0 l/m 3,4 km/h (1 Bft) O-SO 112 10,2 C 13,7 C 3,9 km/h (1 Bft)
01.07.2013 21:55 14,1 C 77 % 1020,4 hPa 0,0 l/m 3,9 km/h (1 Bft) O 90 10,1 C 13,5 C 3,9 km/h (1 Bft)
01.07.2013 22:00 14,1 C 78 % 1020,4 hPa 0,0 l/m 3,7 km/h (1 Bft) O 90 10,3 C 13,4 C 3,7 km/h (1 Bft)
01.07.2013 22:05 13,9 C 78 % 1020,6 hPa 0,0 l/m 3,5 km/h (1 Bft) O 90 10,1 C 13,4 C 3,7 km/h (1 Bft)
01.07.2013 22:10 13,3 C 79 % 1020,6 hPa 0,0 l/m 2,9 km/h (1 Bft) O-SO 112 9,7 C 13,2 C 2,3 km/h (1 Bft)
01.07.2013 22:15 13,1 C 79 % 1020,6 hPa 0,0 l/m 2,4 km/h (1 Bft) O-SO 112 9,5 C 13,1 C 2,7 km/h (1 Bft)
01.07.2013 22:20 12,9 C 80 % 1020,6 hPa 0,0 l/m 1,3 km/h (1 Bft) O-SO 112 9,5 C 12,9 C 2,3 km/h (1 Bft)
01.07.2013 22:25 12,9 C 81 % 1020,6 hPa 0,0 l/m 1,1 km/h (1 Bft) O 90 9,7 C 12,8 C 1,6 km/h (1 Bft)
01.07.2013 22:30 12,6 C 81 % 1020,6 hPa 0,0 l/m 0,8 km/h (0 Bft) O-SO 112 9,4 C 12,5 C 0,0 km/h (0 Bft)
01.07.2013 22:35 12,5 C 81 % 1020,6 hPa 0,0 l/m 0,3 km/h (0 Bft) O-SO 112 9,3 C 12,4 C 0,0 km/h (0 Bft)
01.07.2013 22:40 12,5 C 81 % 1020,6 hPa 0,0 l/m 0,0 km/h (0 Bft) O-SO 112 9,3 C 12,2 C 0,0 km/h (0 Bft)
01.07.2013 22:45 12,4 C 81 % 1020,4 hPa 0,0 l/m 0,0 km/h (0 Bft) O-SO 112 9,2 C 12,0 C 0,0 km/h (0 Bft)
01.07.2013 22:50 12,1 C 81 % 1020,4 hPa 0,0 l/m 0,0 km/h (0 Bft) O 90 8,9 C 11,8 C 0,0 km/h (0 Bft)
01.07.2013 22:55 12,2 C 81 % 1020,4 hPa 0,0 l/m 0,0 km/h (0 Bft) S 180 9,0 C 11,7 C 0,0 km/h (0 Bft)
01.07.2013 23:00 12,3 C 82 % 1020,4 hPa 0,0 l/m 0,0 km/h (0 Bft) O 90 9,3 C 11,7 C 0,0 km/h (0 Bft)
01.07.2013 23:05 12,2 C 82 % 1020,2 hPa 0,0 l/m 0,0 km/h (0 Bft) O-SO 112 9,2 C 11,7 C 0,0 km/h (0 Bft)
01.07.2013 23:10 12,1 C 82 % 1020,2 hPa 0,0 l/m 0,0 km/h (0 Bft) O-SO 112 9,1 C 11,6 C 0,0 km/h (0 Bft)
01.07.2013 23:15 12,0 C 82 % 1020,2 hPa 0,0 l/m 0,0 km/h (0 Bft) N-NO 22 9,0 C 11,5 C 0,0 km/h (0 Bft)
01.07.2013 23:20 11,5 C 82 % 1020,2 hPa 0,0 l/m 0,0 km/h (0 Bft) SO 135 8,5 C 11,3 C 0,0 km/h (0 Bft)
01.07.2013 23:25 11,4 C 83 % 1020,1 hPa 0,0 l/m 0,0 km/h (0 Bft) N-NO 22 8,6 C 11,2 C 0,0 km/h (0 Bft)
01.07.2013 23:30 11,2 C 83 % 1020,1 hPa 0,0 l/m 0,0 km/h (0 Bft) O 90 8,4 C 11,0 C 0,0 km/h (0 Bft)
01.07.2013 23:35 11,1 C 83 % 1020,1 hPa 0,0 l/m 0,0 km/h (0 Bft) O 90 8,3 C 10,8 C 0,0 km/h (0 Bft)
01.07.2013 23:40 11,0 C 84 % 1020,1 hPa 0,0 l/m 0,0 km/h (0 Bft) N 360 8,4 C 10,5 C 0,0 km/h (0 Bft)
01.07.2013 23:45 11,0 C 85 % 1020,1 hPa 0,0 l/m 0,0 km/h (0 Bft) N 360 8,6 C 10,4 C 0,0 km/h (0 Bft)
01.07.2013 23:50 10,8 C 85 % 1020,1 hPa 0,0 l/m 0,0 km/h (0 Bft) N 360 8,4 C 10,4 C 0,0 km/h (0 Bft)
01.07.2013 23:55 10,8 C 86 % 1020,1 hPa 0,0 l/m 0,0 km/h (0 Bft) O 90 8,6 C 10,3 C 0,0 km/h (0 Bft)
_ Min-Zeit 05:50 15:10 23:55 - 23:55 - - 05:50 05:40 23:55
Minimum _ 5,1 C 36 % 1020,1 hPa - 0,0 km/h (0 Bft) - - 4,1 C 4,8 C 0,0 km/h (0 Bft)
_ Max-Zeit 15:40 06:05 00:40 23:55 16:45 - - 08:05 17:30 13:50
Maximum _ 25,5 C 93 % 1023,9 hPa 0,0 l/m 5,8 km/h
N-NW (2 Bft)
- - 12,5 C 30,1 C 15,8 km/h
N-NW (3 Bft)
Durchschnitt _ 16,6 C 64 % 1022,2 hPa #0,0 l/m 1,9 km/h (1 Bft) W-NW - 8,7 C 18,0 C 2,4 km/h (1 Bft)